Wind_Speed
26 25 25 24 24 23 22 22 21 20 19 19 18 18 18 17 17 16 16 16 16 16 15 15 15 15 15 15 16 16 17 17 17 17 18 18 19 19 20 21 21 21 21 21 21 22 22 22 22 22 22 22 22 21 21 20 20 20 19 20 20 20 22 23 23 23 24 25 25 22 20 21 22 22 21 23 25 26 25 26 27 24 25 26 24 24 23 23
27 26 25 25 24 23 23 22 21 21 20 20 19 19 19 19 19 19 19 19 18 18 18 18 18 18 18 18 18 19 20 21 21 21 20 21 22 22 23 23 23 23 23 23 23 23 24 24 24 23 23 22 22 21 20 20 20 20 21 21 20 22 24 24 25 25 25 24 25 23 21 21 22 22 21 21 23 26 24 24 27 25 25 27 25 23 22 22
26 26 25 25 24 24 23 22 22 22 22 21 21 21 21 21 21 21 21 21 21 21 21 21 21 21 21 21 21 22 23 24 24 24 23 23 24 25 25 25 25 24 24 25 25 25 25 25 25 24 23 22 21 21 20 20 22 21 22 22 21 23 24 25 26 26 27 26 25 24 23 22 22 23 22 22 22 23 23 24 27 26 25 26 25 24 22 21
26 26 26 26 25 25 25 24 24 24 24 24 24 24 24 24 24 24 24 24 24 24 24 24 24 24 24 24 24 24 26 27 27 27 26 26 27 27 27 26 26 26 26 26 26 26 26 25 25 24 23 22 21 21 22 22 24 23 22 23 24 25 25 26 27 27 28 28 26 26 26 25 24 23 24 25 23 20 22 25 27 26 25 26 25 24 22 22
28 27 27 27 27 27 27 27 27 27 27 27 27 27 27 27 27 27 27 27 27 27 27 27 27 27 27 27 27 27 29 30 29 28 28 28 29 29 29 28 28 27 27 26 26 26 26 26 25 24 23 23 22 22 24 24 26 26 24 25 26 28 28 28 29 28 29 30 28 28 29 27 26 24 25 27 23 19 22 28 29 26 24 25 25 25 23 23
30 30 30 30 30 30 30 30 30 30 30 30 30 29 30 29 29 30 29 30 30 30 29 29 29 29 29 29 29 29 31 33 32 30 30 31 31 31 30 29 28 27 26 26 26 26 26 26 25 25 24 24 24 24 26 27 29 28 26 27 28 29 30 30 31 29 29 31 30 31 31 30 29 28 26 26 22 19 23 29 31 27 24 23 24 25 25 25
33 33 33 33 33 33 33 33 33 33 33 33 33 32 32 32 32 32 32 32 32 32 32 32 32 32 32 32 32 32 32 35 35 32 32 32 31 30 29 28 27 26 26 26 27 26 26 26 26 27 27 27 27 27 29 30 31 31 28 28 30 30 29 30 32 30 30 32 32 33 33 31 32 32 27 23 23 22 24 30 32 28 26 24 24 25 25 25
35 35 35 35 35 35 35 35 35 36 36 36 36 36 35 35 35 35 35 35 35 35 35 35 35 34 34 33 33 32 31 35 36 34 33 31 29 28 27 27 26 26 27 27 28 28 28 28 29 29 30 30 30 30 32 33 33 32 29 30 31 30 29 30 32 31 31 32 33 35 35 33 35 35 26 22 24 26 29 32 31 29 28 27 25 25 26 24
36 35 35 34 34 34 34 34 35 35 36 36 37 37 37 37 37 37 37 37 37 37 36 36 36 35 34 33 32 29 29 34 35 33 32 30 28 27 27 26 27 27 28 29 29 30 30 31 31 32 33 32 32 33 34 35 35 33 31 31 31 31 30 30 31 31 33 33 35 38 38 35 37 37 27 22 27 29 32 33 32 32 30 29 28 26 26 25
36 35 34 34 33 33 32 32 32 33 33 34 34 35 35 36 36 37 37 37 36 36 36 35 34 33 31 29 28 24 26 32 32 31 30 29 28 27 27 27 28 29 30 31 32 33 33 33 34 35 35 35 34 34 35 35 35 34 34 33 32 32 31 30 31 32 36 36 36 40 40 36 38 38 28 25 32 33 33 34 34 34 32 31 30 28 27 26
36 35 35 34 34 34 33 33 33 32 32 32 32 33 33 34 34 34 34 34 34 34 33 33 31 30 28 27 24 22 27 31 30 31 31 29 29 29 29 30 31 32 33 33 34 35 35 35 36 37 37 36 35 35 35 36 36 36 36 36 34 34 33 32 33 34 38 38 36 40 43 38 36 37 30 29 35 35 34 34 34 35 34 32 31 30 29 27
38 37 37 37 36 36 36 35 35 35 34 34 33 33 33 33 33 33 33 33 33 33 32 32 31 30 29 26 23 25 28 30 30 31 32 32 32 32 33 34 34 35 35 35 36 36 37 37 37 38 37 37 36 37 36 36 38 37 38 40 36 36 36 33 35 36 38 39 37 41 46 41 36 34 31 31 34 36 37 35 34 34 34 34 33 32 31 29
40 40 40 39 39 39 39 38 38 37 37 37 36 35 35 35 35 34 34 34 34 34 34 33 33 32 31 27 26 29 31 31 33 34 35 36 35 35 36 36 36 37 37 37 38 38 39 39 39 39 38 38 38 38 38 38 39 38 40 43 40 40 39 35 36 36 37 40 39 42 47 46 41 34 31 33 34 35 37 36 35 34 34 34 34 34 33 32
43 42 42 42 41 41 41 40 40 39 39 39 38 38 38 37 37 37 37 37 36 36 36 36 36 36 35 31 30 32 34 35 36 37 38 38 37 37 37 38 38 38 39 39 40 40 41 41 41 42 40 40 40 39 40 41 41 38 41 45 43 44 42 36 36 34 37 41 40 44 48 47 46 38 31 34 35 35 37 36 35 34 33 34 35 35 35 35
44 44 44 43 43 42 42 42 41 41 41 40 40 40 40 40 40 40 40 40 40 40 40 40 40 41 40 36 34 35 36 38 39 39 40 40 39 39 39 39 40 40 41 41 41 42 42 43 43 43 42 41 41 40 40 43 44 40 42 46 45 47 45 41 38 33 36 42 42 45 49 49 47 42 35 35 35 35 37 37 34 33 32 32 33 34 35 36
44 44 44 44 44 43 43 43 42 42 42 42 42 42 42 42 42 42 42 43 43 43 43 43 42 43 43 38 36 37 38 39 40 40 40 41 41 41 41 42 42 42 43 42 43 43 43 44 44 44 44 41 40 41 42 45 46 43 45 48 46 47 47 46 44 37 36 42 44 46 49 49 47 45 41 37 37 37 37 37 35 33 32 31 33 34 34 36
44 44 45 45 44 44 44 44 44 43 43 43 43 43 43 43 43 44 44 44 44 44 44 44 44 45 45 41 39 39 40 41 42 42 42 42 42 43 43 44 44 44 45 44 45 44 44 46 45 46 46 42 41 42 45 47 46 45 49 49 48 48 48 47 45 40 38 42 46 47 48 47 44 45 44 38 36 39 39 38 36 34 32 31 33 35 35 36
45 46 46 46 46 45 46 46 46 45 45 45 45 45 44 45 45 45 46 45 45 45 46 46 45 46 47 44 42 42 42 43 43 43 43 43 43 44 44 45 45 45 46 46 46 46 46 47 47 48 47 42 42 44 47 48 47 48 51 51 51 50 49 49 47 44 43 45 46 46 47 47 44 44 43 39 37 39 40 39 36 35 34 34 35 36 36 36
46 47 47 47 47 47 47 47 47 47 47 46 46 46 46 46 47 47 47 47 46 46 47 47 46 47 48 46 44 44 44 44 44 44 43 43 44 44 45 46 45 46 47 47 47 47 47 49 50 50 47 43 44 47 48 48 48 50 51 51 52 52 51 51 49 47 48 49 47 46 46 47 47 46 44 44 42 41 42 41 38 36 35 36 36 36 35 36
47 47 47 47 47 47 47 47 47 47 47 47 47 47 48 47 47 48 48 47 47 47 47 48 47 47 47 47 46 46 45 45 45 44 43 43 44 44 46 46 46 47 47 47 49 47 47 51 52 49 45 45 48 49 49 49 49 52 53 52 53 53 53 51 50 49 49 52 51 49 49 49 49 48 47 48 47 45 44 42 41 38 36 36 36 35 36 37
48 48 48 48 47 47 48 48 47 48 48 48 48 48 49 48 48 50 48 47 47 47 48 48 49 48 47 48 47 47 47 47 45 43 42 43 43 45 46 45 46 47 47 48 49 48 49 52 53 49 46 46 49 50 51 51 51 52 53 54 54 54 54 53 52 52 50 52 53 52 53 53 51 51 50 51 50 49 47 44 42 40 38 37 37 37 37 37
50 50 50 49 49 49 49 49 49 49 50 50 50 50 51 50 50 51 51 49 48 48 49 49 50 50 49 49 49 48 49 49 47 45 43 43 43 45 46 46 46 48 49 48 48 49 51 53 52 50 48 49 50 50 52 53 53 53 53 55 56 55 55 55 55 55 54 54 55 55 56 55 55 55 55 55 53 50 50 49 45 42 40 38 37 38 37 37
53 52 52 52 52 51 51 52 51 52 52 52 53 53 53 53 52 53 53 54 51 49 50 51 52 52 52 52 51 50 51 50 49 47 44 44 45 45 46 46 47 48 50 49 48 50 53 54 53 49 48 50 51 51 52 53 54 54 54 56 57 56 56 57 57 57 57 56 56 57 57 57 57 58 58 59 59 54 52 54 53 50 47 42 40 39 38 38
55 55 55 54 54 54 54 54 54 54 55 56 56 57 56 56 55 55 55 56 55 52 51 52 54 55 54 55 53 52 52 50 50 49 45 46 47 46 47 48 48 49 50 49 50 51 53 55 55 52 51 52 53 53 52 53 54 55 55 56 56 55 57 59 59 59 60 59 59 59 59 59 59 62 61 59 61 59 56 58 59 59 57 52 48 44 40 39
56 56 57 57 56 56 56 56 57 57 58 59 60 60 59 59 58 58 58 58 58 57 55 54 55 56 55 55 53 52 52 51 50 50 48 48 48 47 47 48 48 50 51 49 50 52 52 52 52 53 53 52 53 52 51 52 54 55 55 55 55 56 58 59 60 60 61 61 62 61 60 60 60 62 63 61 60 60 61 62 59 59 61 59 56 52 46 41
54 55 55 56 56 56 57 57 57 58 59 59 60 60 60 60 59 59 58 58 60 59 58 56 55 54 54 53 53 52 51 51 50 49 47 46 46 45 46 46 46 48 49 48 49 51 50 49 49 51 52 52 52 51 51 53 55 55 55 54 55 57 57 58 59 60 61 61 62 62 62 62 61 60 61 62 61 59 61 64 61 58 60 59 57 51 45 40
49 50 51 51 52 52 53 53 53 54 54 54 55 55 55 56 56 55 54 56 58 58 57 56 54 53 52 51 52 51 49 49 48 47 47 46 46 46 46 46 45 47 48 48 49 49 48 48 49 50 51 52 52 51 51 52 54 55 54 53 53 54 55 56 57 58 59 60 60 61 61 61 60 58 58 59 60 60 59 61 61 59 57 57 53 43 38 37
47 48 48 48 48 48 49 49 49 50 50 50 50 51 51 52 52 51 51 54 57 57 57 55 54 53 51 50 50 50 49 48 48 48 48 48 48 47 47 47 46 46 46 47 49 49 47 47 48 49 49 49 49 50 50 50 51 52 52 52 51 51 52 53 55 56 57 58 60 59 57 58 57 55 56 57 58 59 59 59 59 58 54 51 48 41 34 32
46 47 47 48 47 47 47 47 48 49 50 50 50 50 51 51 51 51 51 55 58 58 57 54 53 53 52 50 50 49 48 48 47 47 48 48 48 48 47 46 46 46 46 47 48 48 48 47 48 48 48 47 48 48 49 48 49 49 48 50 50 51 52 52 54 54 55 57 58 56 54 55 56 54 55 58 58 58 58 58 56 55 55 50 45 41 35 30
46 47 47 48 49 49 49 48 49 50 50 50 51 51 52 52 52 51 53 57 57 57 56 54 52 51 51 50 49 48 48 47 47 47 47 47 47 48 47 47 47 47 47 48 47 48 48 48 49 48 47 47 47 47 47 47 47 46 47 49 50 52 52 54 55 54 55 57 57 55 54 54 55 55 55 56 57 56 56 57 53 50 50 46 43 43 41 38
47 47 47 48 49 50 50 49 49 50 51 51 51 52 52 52 52 52 56 57 55 54 54 53 52 50 50 50 50 50 49 49 49 49 49 48 48 48 48 49 49 49 50 49 49 49 50 50 50 49 47 47 48 47 47 47 46 47 48 49 51 52 54 55 56 55 55 56 55 55 55 55 55 55 54 54 55 55 55 55 52 49 44 38 39 46 46 45
47 47 48 48 49 51 52 51 51 51 51 52 53 53 53 53 54 56 57 56 53 53 53 53 53 52 52 51 52 52 52 52 52 52 52 51 50 49 48 49 50 50 51 51 53 54 54 53 52 51 50 49 49 49 49 48 48 48 48 49 51 52 53 55 56 56 55 55 55 55 55 57 57 55 53 52 53 54 53 54 53 52 49 43 43 50 51 50
46 47 48 48 49 50 50 50 50 50 50 51 52 53 54 55 58 58 57 54 53 53 52 53 53 54 54 54 55 55 55 54 54 54 53 52 51 50 49 49 50 52 55 57 60 62 61 59 56 53 52 51 50 48 49 49 49 49 48 48 50 51 53 55 55 55 56 56 57 56 56 58 58 56 54 51 51 52 52 54 55 55 56 53 51 53 54 54
46 45 45 45 45 47 48 47 47 47 48 50 51 52 54 56 59 58 56 54 52 51 51 51 51 52 54 55 55 55 54 54 54 53 53 52 52 51 49 50 51 54 57 59 61 62 61 60 58 56 54 52 50 48 47 48 49 49 48 48 49 50 51 53 54 55 56 58 57 55 57 58 56 55 55 53 53 54 54 56 56 56 57 58 59 59 59 59
50 49 48 45 43 43 43 43 43 43 45 47 49 52 55 57 57 55 54 53 51 49 48 48 49 51 53 54 55 55 53 54 53 50 49 49 50 50 51 52 54 53 52 52 53 54 55 55 55 56 53 50 48 47 47 48 49 50 49 50 50 49 50 53 56 57 58 60 59 56 58 58 55 55 56 56 57 58 57 59 59 59 59 60 63 64 64 63
50 51 51 49 46 44 43 42 42 43 43 44 48 53 55 55 53 52 52 51 50 49 47 48 49 51 53 54 55 54 51 50 49 49 49 51 52 54 55 55 53 51 48 48 49 50 51 51 51 52 52 49 47 47 48 48 50 52 52 52 53 52 53 56 59 59 59 63 63 59 60 60 58 59 58 58 61 61 61 63 63 64 64 65 67 68 68 67
53 52 51 51 50 49 48 47 46 46 45 46 49 52 53 51 50 51 52 51 51 52 51 50 50 50 51 51 51 52 51 51 52 53 55 57 59 58 55 52 50 49 49 49 50 51 52 52 51 51 53 53 52 52 53 53 54 55 55 54 54 56 57 57 59 59 61 65 65 63 63 64 63 64 63 63 65 65 65 66 67 67 67 68 70 70 71 71
59 59 57 57 56 55 54 54 52 48 46 48 52 52 51 50 49 50 51 51 52 53 52 52 51 51 51 50 51 54 56 56 56 56 56 57 57 55 52 50 51 51 51 53 54 54 55 56 53 52 56 58 56 56 57 57 55 54 52 52 52 54 56 55 57 59 60 62 63 61 62 64 65 64 61 62 65 67 67 66 66 67 67 68 71 72 72 72
62 63 62 61 60 59 59 60 57 50 46 50 54 53 51 51 50 50 50 50 51 52 53 53 53 53 54 53 54 55 56 56 56 56 56 55 55 54 53 54 55 55 55 56 57 56 56 58 57 55 57 59 57 57 57 54 53 53 52 53 53 53 54 53 53 54 56 58 58 57 58 59 59 58 56 57 62 66 65 62 62 64 65 66 67 68 68 67
63 64 64 62 60 57 58 60 56 50 47 50 53 54 53 53 54 53 50 50 51 52 53 54 55 56 56 56 56 57 58 58 59 60 60 60 59 59 58 58 59 59 58 57 56 56 54 56 57 57 58 59 58 56 53 50 50 50 50 50 51 51 50 50 51 50 51 54 54 54 56 53 50 49 51 53 56 60 59 57 57 59 61 63 63 63 63 63
63 65 64 63 61 59 59 59 56 50 48 50 53 55 55 54 55 55 54 53 54 56 57 58 59 60 60 61 61 62 63 64 64 65 65 66 65 63 63 61 60 59 58 56 54 54 54 54 55 55 56 58 57 53 50 49 48 47 45 44 45 47 47 48 51 51 49 53 53 53 57 55 48 46 48 49 50 53 54 54 54 54 55 59 61 62 63 63
64 64 63 63 63 63 62 61 58 54 52 53 54 56 56 56 57 58 58 58 59 62 62 63 65 65 66 67 67 67 67 68 68 68 68 67 65 63 62 62 60 58 57 56 54 54 55 55 55 54 53 54 54 52 51 51 49 48 47 45 45 47 47 48 53 55 54 56 56 55 59 58 50 45 45 46 46 48 52 55 56 55 56 59 61 63 64 64
63 63 63 63 64 65 65 65 63 61 58 56 57 60 62 63 63 63 64 65 66 68 69 70 71 71 71 71 70 69 69 69 70 68 66 64 62 60 59 58 58 57 55 56 56 54 54 54 55 55 52 52 53 52 53 53 52 52 51 50 49 50 50 51 55 57 57 57 55 54 58 59 54 50 48 48 49 50 52 55 57 58 60 61 62 63 64 66
64 64 64 63 64 65 67 66 66 65 62 59 60 64 66 69 70 71 73 74 74 75 75 74 74 72 71 71 70 69 67 66 65 64 60 58 57 56 54 53 52 53 53 54 55 54 53 54 54 54 54 55 54 53 54 55 52 50 49 48 50 50 49 51 53 54 57 58 56 57 61 62 61 58 57 57 57 58 58 60 62 64 66 67 68 68 69 71
66 66 66 66 66 67 67 67 66 66 65 64 64 65 67 69 71 73 75 76 76 76 75 73 72 70 68 67 67 66 64 62 60 60 58 54 53 51 50 49 49 50 50 52 53 53 55 55 55 56 58 59 58 56 55 55 55 54 52 51 53 53 53 54 55 58 62 64 63 64 66 67 64 62 61 63 64 66 67 68 67 67 68 70 72 73 74 76
68 69 69 69 69 70 69 68 68 68 67 67 67 67 67 68 68 68 69 70 71 72 71 70 69 67 65 65 64 62 60 58 56 57 56 54 53 51 50 50 50 51 51 52 53 54 56 57 56 58 60 60 60 59 57 58 61 62 61 60 59 59 59 61 63 66 68 69 68 67 66 66 63 61 61 63 65 68 70 72 73 73 73 75 77 80 82 83
71 71 71 71 71 72 71 70 70 69 68 68 68 68 68 67 67 67 66 67 66 65 65 65 65 64 63 61 60 58 56 54 54 54 53 53 53 53 53 52 52 53 53 54 56 56 58 59 58 58 61 61 61 61 59 60 63 65 64 63 61 60 61 63 66 69 69 72 73 71 68 69 68 66 67 68 69 71 72 72 73 73 74 76 78 79 80 78
74 73 72 72 71 71 71 70 69 68 67 67 68 68 68 67 67 67 66 66 64 61 61 61 61 60 60 58 57 56 54 53 54 53 53 53 54 55 55 54 54 55 55 56 57 57 60 61 58 59 61 61 60 61 60 62 64 64 65 64 62 61 62 63 66 69 69 73 75 72 70 73 74 73 75 76 77 79 79 78 77 76 77 78 79 79 77 76
75 74 73 73 72 71 70 69 67 67 67 67 67 67 67 66 65 65 65 64 62 60 59 59 58 57 56 56 56 56 54 54 54 54 54 55 55 56 57 57 57 57 56 57 58 58 60 61 60 61 63 61 60 60 61 63 65 65 64 64 64 64 65 66 67 68 69 72 73 72 73 75 74 74 76 78 79 81 82 83 85 85 86 87 88 88 88 89
74 73 72 72 71 70 69 68 67 67 66 66 67 66 64 64 62 62 62 61 59 58 57 57 57 55 54 55 55 55 55 55 55 56 56 56 57 57 58 58 58 57 57 57 58 59 61 62 62 63 65 64 62 62 62 64 66 67 66 66 66 67 68 68 68 68 70 73 73 74 77 78 76 76 78 79 80 81 83 84 85 87 89 90 91 92 93 95
73 72 71 71 71 70 69 68 67 66 66 65 65 63 62 60 59 59 60 59 57 56 55 56 56 55 55 55 56 56 56 56 56 57 56 57 58 58 58 58 58 58 58 58 60 61 61 62 63 64 67 67 65 64 66 67 68 70 70 68 68 68 70 70 70 71 73 75 76 77 80 81 80 81 82 83 83 83 84 85 86 87 89 91 92 93 93 94
71 70 70 69 69 68 68 67 65 65 65 64 62 61 59 58 57 57 57 57 56 55 55 55 56 56 56 57 57 57 57 57 57 57 58 58 58 58 58 58 58 59 60 60 61 61 61 63 64 65 69 70 67 67 69 70 72 74 72 70 69 70 72 74 75 76 77 78 80 82 83 83 84 84 85 85 86 86 86 86 87 87 89 91 92 92 92 92
Wind_Direction
259 260 262 264 265 266 267 267 268 267 267 266 266 265 264 264 264 264 264 265 266 267 269 270 272 275 278 281 284 286 288 289 288 288 290 290 289 288 288 288 288 288 288 288 288 287 286 286 286 286 287 287 287 287 288 289 290 293 295 297 301 297 292 294 296 295 299 303 306 308 304 300 297 296 297 298 299 297 297 296 293 295 296 295 297 297 295 293
258 259 261 262 263 264 265 266 266 266 266 266 266 266 267 267 268 268 269 270 271 272 273 274 276 278 280 282 285 287 288 288 287 287 288 287 287 286 286 286 286 287 287 287 286 285 285 285 285 285 285 285 285 285 287 288 289 292 294 297 298 293 292 295 294 294 298 302 304 306 304 301 297 298 300 299 296 296 300 296 292 298 298 297 298 296 295 293
257 258 259 260 261 261 262 263 264 264 265 265 266 267 268 269 269 270 271 272 274 274 276 277 279 281 282 284 285 287 288 287 287 286 286 286 285 284 284 285 285 285 286 285 284 284 283 283 283 283 282 282 283 283 285 286 287 290 294 296 294 290 291 292 291 292 296 300 300 301 302 301 297 297 300 299 298 301 301 294 291 298 299 296 297 297 298 295
256 257 258 259 260 260 261 261 262 263 263 264 265 267 268 269 270 270 271 273 274 275 276 278 279 281 282 283 284 286 287 286 285 285 285 284 283 283 284 285 285 284 284 283 283 282 281 281 281 281 280 279 279 281 284 285 286 289 293 294 292 290 290 289 289 291 294 295 296 296 297 298 295 295 296 297 305 311 301 293 292 296 298 298 297 298 299 295
255 256 257 259 260 261 261 262 263 264 264 265 266 267 267 268 269 270 271 272 273 275 276 277 278 279 280 281 282 284 284 283 282 283 283 283 283 283 285 284 284 283 282 281 281 280 280 280 280 279 278 278 279 281 283 285 286 289 292 292 290 289 289 290 289 291 291 291 292 291 292 294 292 291 292 296 308 313 299 292 290 291 295 299 300 300 297 293
255 256 257 258 260 261 262 263 264 265 266 266 267 268 268 269 269 270 270 271 273 274 275 276 276 277 278 279 280 281 282 281 279 280 281 281 282 283 284 283 282 282 281 280 279 279 279 279 278 277 277 279 281 283 284 286 287 289 291 290 287 286 289 290 288 290 290 289 290 289 289 290 289 286 287 298 309 303 290 286 286 290 295 298 300 298 296 294
255 256 257 258 259 260 262 262 263 264 265 266 266 267 268 269 269 270 271 271 272 273 274 275 275 276 277 278 278 279 281 279 277 278 278 278 279 280 280 280 280 279 279 279 279 279 278 278 278 277 278 279 281 284 285 286 286 288 290 287 285 286 288 288 288 290 289 289 288 286 286 287 286 284 287 302 306 294 281 278 283 292 296 298 298 295 295 298
255 256 258 259 260 261 262 262 263 263 264 264 265 266 267 267 268 269 270 271 272 273 274 275 275 276 276 277 277 278 279 275 275 277 276 276 276 276 277 277 279 279 280 280 280 280 280 279 279 279 280 280 282 284 285 286 286 288 289 285 285 287 287 287 288 291 289 288 288 285 285 283 282 285 294 304 296 286 278 278 285 292 295 296 296 296 297 300
257 257 258 259 260 262 262 263 264 264 265 265 266 266 266 267 267 268 269 270 271 272 272 273 274 275 275 276 276 278 275 271 274 277 276 276 275 275 276 276 278 280 281 282 282 282 282 282 282 282 282 282 284 285 285 286 287 288 287 284 285 286 286 287 289 291 290 288 287 286 285 284 283 287 300 301 285 279 280 283 287 289 292 294 294 297 299 301
257 257 258 259 260 261 263 264 265 266 267 267 268 268 268 268 268 268 269 269 270 270 271 271 272 272 273 273 274 275 270 269 274 276 276 276 275 275 276 278 280 281 281 283 283 283 283 283 283 283 283 284 285 285 285 286 287 288 287 285 284 284 285 286 289 291 290 288 289 289 287 286 285 288 297 291 280 279 281 285 287 287 290 292 294 297 299 300
257 258 258 259 260 262 263 265 266 267 268 268 269 269 269 269 269 269 269 269 269 270 270 270 270 270 270 270 272 270 266 269 273 274 275 275 275 276 277 279 281 282 282 282 282 283 283 283 283 283 283 285 285 285 286 286 287 287 287 285 284 284 284 286 289 289 289 290 292 291 289 287 286 288 292 284 280 282 282 282 284 287 289 291 294 296 296 296
258 259 259 260 261 262 263 264 265 266 267 267 268 268 268 269 269 269 269 269 269 269 269 270 270 270 270 270 272 268 266 269 272 273 275 276 277 278 279 281 281 282 282 282 282 282 283 283 283 283 285 286 285 285 286 285 285 286 286 284 284 284 283 285 287 288 291 293 294 291 288 287 285 286 289 284 282 284 284 283 284 286 289 290 291 291 291 290
259 260 260 261 262 263 263 264 264 265 265 266 266 267 267 268 268 269 269 269 269 269 269 269 270 270 270 270 270 269 269 271 272 273 274 276 278 279 280 281 281 281 282 282 283 283 283 284 284 284 285 286 286 286 286 285 284 286 286 284 285 283 282 284 286 290 294 293 293 290 287 288 287 286 288 287 285 285 285 286 287 287 288 288 288 287 286 284
260 260 261 261 262 262 263 264 264 264 265 265 266 266 267 267 268 268 268 268 269 269 269 270 270 270 270 270 269 269 271 271 271 272 273 275 276 277 278 279 279 280 281 281 282 283 284 284 285 285 286 285 286 286 287 287 285 285 285 285 286 284 283 284 284 291 294 291 290 288 285 286 287 289 290 287 287 288 288 289 289 288 287 285 285 284 282 280
260 260 261 261 261 262 262 263 264 264 265 265 266 266 266 267 267 268 268 268 269 269 270 270 271 271 271 270 270 269 270 270 270 271 272 274 275 275 276 277 277 278 279 280 281 282 282 283 284 284 284 284 285 287 287 286 285 286 285 283 285 285 287 287 286 289 291 289 287 285 284 285 287 291 290 286 287 289 289 290 290 289 287 285 283 281 279 277
260 261 261 261 262 262 262 263 263 263 264 264 265 266 266 267 267 268 268 269 269 270 271 272 272 273 273 272 271 270 270 270 270 271 272 273 274 275 276 277 277 278 278 279 280 280 281 281 282 282 282 283 285 287 287 284 285 287 284 283 284 285 287 289 289 291 290 287 285 282 283 285 290 293 291 290 292 291 288 288 288 287 287 286 284 281 278 275
261 262 262 262 263 263 263 263 263 263 263 264 264 265 266 267 267 268 268 269 270 271 272 272 273 273 274 273 272 271 271 271 271 271 272 273 274 275 276 277 277 278 279 279 279 279 280 280 280 281 280 282 285 286 284 283 285 286 284 284 286 285 286 286 288 292 290 284 282 282 282 285 288 289 289 292 293 290 287 286 287 288 287 287 284 282 279 276
263 264 264 264 264 265 265 265 265 265 264 265 265 265 266 266 267 268 268 269 269 271 271 271 272 273 273 273 272 271 270 270 271 272 272 274 275 275 276 276 277 277 278 278 278 279 279 279 279 278 279 283 284 282 281 282 284 284 284 286 286 286 287 288 291 293 290 283 280 282 284 287 288 286 289 292 290 286 285 286 287 288 289 286 283 282 281 278
264 265 265 266 266 266 267 267 267 267 267 267 267 267 267 267 267 267 268 268 269 270 270 271 271 272 273 273 272 270 269 269 269 270 271 273 273 274 274 275 275 276 276 277 277 277 278 278 277 277 280 283 281 278 278 281 282 282 282 284 285 286 287 288 291 292 290 286 283 284 284 286 287 287 290 291 288 286 286 288 288 289 289 286 284 283 280 277
265 265 266 266 267 267 268 268 269 270 270 270 270 269 269 268 268 268 268 269 269 269 270 271 270 270 272 273 272 271 270 269 268 269 270 270 271 272 272 273 274 274 275 275 275 275 276 276 276 277 280 281 279 278 279 279 280 280 281 282 284 285 286 288 289 288 287 287 287 288 286 285 285 287 288 287 286 287 287 288 289 290 289 288 287 285 280 276
265 265 266 267 268 268 269 269 270 271 271 272 272 271 271 270 270 270 269 269 270 271 271 271 272 272 272 272 273 273 272 271 271 271 271 271 271 272 272 272 273 273 273 273 274 275 275 275 276 278 278 277 277 278 279 279 278 279 280 282 283 283 285 287 287 286 286 286 288 289 288 287 288 288 287 285 286 287 287 286 286 287 287 287 287 285 281 279
264 265 266 267 267 268 269 269 270 271 271 272 272 272 272 272 271 271 271 269 269 270 271 272 272 273 273 273 273 274 274 275 275 274 273 273 272 272 273 273 273 273 273 273 274 275 275 275 276 277 278 276 275 276 276 277 278 278 280 281 282 283 285 286 285 286 285 285 286 287 287 288 289 289 288 288 287 287 289 288 285 284 283 281 280 280 279 279
263 264 265 265 266 267 268 269 269 270 271 271 272 272 273 273 272 272 272 271 269 269 271 273 274 275 275 275 275 275 275 276 276 276 276 275 273 272 273 273 273 273 274 275 275 275 275 275 275 276 276 276 275 274 274 275 277 278 279 280 281 283 285 284 284 285 285 285 285 285 286 288 290 289 289 291 292 293 296 295 292 290 286 283 280 277 276 276
262 262 263 264 266 267 268 268 269 269 270 270 271 271 272 272 273 272 273 272 271 270 271 273 275 276 276 276 277 277 277 277 277 277 277 275 274 274 274 274 274 274 274 274 274 273 273 274 276 276 274 274 274 275 275 275 276 277 277 278 280 282 282 283 283 284 284 285 285 285 287 288 290 289 290 292 294 297 298 295 295 295 292 289 287 283 280 276
261 262 263 264 265 266 267 267 268 269 269 269 269 269 270 271 271 272 273 273 272 273 273 274 275 276 276 277 277 278 279 279 279 279 278 277 277 276 275 275 275 274 274 273 272 272 272 273 275 275 274 274 274 274 275 275 275 275 276 278 279 279 280 281 282 283 284 285 285 286 286 285 286 288 291 293 293 296 295 291 292 295 294 295 295 293 290 283
262 263 263 264 265 266 267 267 268 268 269 268 268 268 268 269 270 271 273 274 273 273 274 273 274 274 275 277 278 279 280 280 280 280 280 279 279 278 277 276 275 275 274 273 272 273 273 273 272 273 274 274 274 274 275 275 275 275 276 277 277 277 278 279 280 281 282 283 284 286 287 285 285 289 292 293 293 293 292 290 290 292 294 296 299 299 296 292
262 263 263 263 264 264 265 266 266 266 267 267 267 267 268 268 270 271 273 274 273 273 274 274 274 274 275 276 278 279 280 281 281 281 280 280 279 278 277 276 275 274 275 274 274 274 274 273 273 273 273 274 274 275 275 275 276 276 277 277 277 277 278 278 279 279 280 281 282 284 286 286 288 292 293 293 292 291 289 289 290 290 291 294 299 300 295 295
262 262 262 261 262 263 263 263 264 264 265 266 266 267 268 268 269 271 273 273 272 273 274 275 276 277 278 279 279 280 281 281 281 281 280 280 279 278 277 276 275 274 275 275 275 275 275 274 274 274 274 275 275 275 275 276 277 278 279 279 280 279 279 279 279 279 280 281 282 283 287 289 289 292 294 292 291 290 290 290 290 291 292 294 297 296 290 286
260 260 259 258 259 261 262 262 263 264 264 266 267 268 269 270 270 271 272 272 273 274 275 277 278 279 280 281 281 282 283 283 282 281 280 279 278 278 277 276 276 276 275 275 276 276 276 275 275 275 276 276 276 276 277 277 277 278 279 280 280 280 280 281 280 281 282 282 282 285 290 291 290 291 291 290 290 291 290 291 293 297 297 297 295 294 288 279
259 259 260 261 261 261 262 263 264 265 266 268 270 271 271 271 271 271 271 271 273 275 277 278 279 280 281 283 284 283 282 281 280 279 279 278 278 277 277 277 278 278 277 277 277 277 277 277 277 277 277 277 278 277 277 278 278 279 280 280 280 281 281 281 281 283 283 283 285 287 289 289 288 287 287 288 289 290 291 292 296 299 300 298 295 294 292 285
260 260 261 262 262 262 263 263 265 266 268 270 271 271 272 271 271 270 271 273 275 276 278 279 280 282 282 283 283 283 282 281 280 279 278 277 276 276 276 276 277 277 278 279 279 278 277 278 277 277 277 278 278 278 278 279 280 281 281 281 281 282 282 282 282 281 281 283 285 285 285 284 283 283 284 286 287 288 291 293 295 296 295 291 287 289 290 288
263 263 264 265 264 264 264 264 266 267 268 270 270 271 271 270 270 270 271 273 275 276 278 279 280 281 281 281 281 281 282 282 282 280 279 277 277 276 276 276 277 278 279 280 281 281 281 280 279 279 279 279 279 280 281 281 281 281 281 282 282 282 282 282 282 282 283 283 282 280 280 279 279 279 280 282 284 287 289 290 290 291 290 285 281 285 288 288
264 264 263 262 262 262 264 265 266 266 266 266 267 268 268 268 269 270 269 271 274 277 278 279 280 280 280 280 280 280 282 282 282 282 281 280 279 278 278 279 280 281 282 284 284 284 282 280 280 280 280 280 281 281 281 281 281 281 281 282 281 282 282 282 283 285 285 282 280 278 278 277 278 279 280 281 282 283 283 282 283 284 285 284 283 283 285 285
261 259 258 258 258 260 263 265 265 266 266 267 267 267 267 267 269 271 273 274 276 278 278 279 279 279 278 278 279 280 280 280 280 280 280 280 279 280 280 281 282 283 283 283 282 281 280 279 279 279 278 279 279 279 279 280 280 280 281 280 279 280 281 281 282 281 280 278 277 278 278 278 280 282 283 283 281 280 279 278 278 279 280 282 282 281 281 281
258 257 257 259 261 264 264 264 264 264 266 268 269 269 269 271 274 276 277 277 277 277 276 275 274 274 274 274 276 277 276 276 276 275 274 274 276 277 279 281 281 280 278 276 275 275 275 277 278 278 277 277 276 276 277 278 278 278 278 278 278 279 279 278 277 276 276 276 275 276 277 278 280 280 281 281 281 281 281 280 280 280 280 280 281 281 281 281
255 255 256 258 261 263 264 265 266 266 269 271 270 270 272 274 276 277 275 274 274 273 271 269 269 270 271 272 273 272 270 270 271 271 271 273 274 277 279 280 279 276 274 273 272 273 273 274 276 277 278 277 276 276 276 277 278 278 278 279 281 280 278 276 276 276 276 276 276 277 278 279 280 278 277 279 279 280 281 281 281 280 280 279 279 279 280 281
258 258 258 259 261 262 264 267 268 272 276 275 273 274 275 275 275 273 272 271 269 268 267 266 266 267 268 268 269 269 267 268 270 272 275 276 277 279 279 276 274 273 274 275 275 275 275 275 275 278 280 281 281 281 280 280 280 280 280 281 281 279 278 278 277 277 277 278 279 281 280 281 281 281 281 281 280 280 279 279 278 278 278 278 278 277 278 278
263 263 262 263 265 265 266 268 270 275 277 273 274 278 277 275 272 267 265 265 264 264 265 266 268 268 267 268 270 271 272 274 275 275 276 276 277 278 276 274 273 274 276 278 279 279 280 279 277 279 282 283 283 284 284 284 284 283 282 281 278 277 277 277 277 278 280 280 281 283 283 282 283 284 284 283 281 281 280 278 278 277 276 274 274 274 274 274
265 265 265 266 268 268 269 270 271 274 270 265 270 275 273 270 267 262 260 259 260 262 263 265 268 269 270 271 273 275 276 277 279 279 279 278 278 278 277 277 278 278 279 281 282 283 284 283 282 281 282 284 285 286 287 287 287 285 283 281 280 280 279 278 276 278 280 281 282 284 283 284 286 287 285 283 283 283 282 279 277 276 275 274 273 273 273 273
265 266 266 267 268 268 269 270 270 272 269 263 263 265 264 262 261 260 259 257 258 262 264 267 269 270 271 272 273 275 276 277 279 281 282 282 282 282 281 282 282 283 283 283 284 285 285 285 285 285 285 286 288 289 288 286 284 283 283 283 283 283 283 281 279 278 279 279 281 281 280 282 285 286 286 286 284 283 281 278 275 273 274 274 274 274 273 272
263 264 265 267 269 269 269 269 269 269 264 258 257 259 260 260 259 258 256 256 260 263 266 269 271 272 274 274 275 276 277 277 279 281 283 283 285 285 285 285 285 284 285 285 285 284 284 284 285 286 287 287 289 289 286 283 282 281 280 281 282 283 283 283 282 282 281 279 279 279 279 280 282 283 284 283 281 278 277 274 272 270 269 269 269 270 270 270
262 262 262 264 266 268 268 269 269 266 259 255 256 259 262 262 261 259 257 257 261 265 268 271 273 275 276 277 278 278 279 279 280 282 283 284 285 285 286 286 286 285 286 285 284 284 284 284 284 285 286 286 287 287 284 283 283 280 277 276 276 278 279 278 279 281 281 280 280 279 279 279 279 280 278 275 273 271 269 269 270 269 268 266 266 266 266 267
263 263 263 263 263 265 266 267 267 266 264 260 257 257 259 260 259 259 260 261 264 268 271 273 275 276 278 279 280 281 281 282 282 282 283 284 284 284 284 285 285 285 285 284 284 284 284 284 284 284 284 284 286 286 284 283 282 279 278 277 276 277 278 277 276 279 279 278 279 278 277 278 279 279 276 273 271 267 265 265 267 267 267 265 264 264 265 267
264 265 264 264 264 264 265 266 267 267 267 264 259 256 257 258 259 261 264 267 270 273 274 276 277 278 279 280 280 281 282 282 283 283 283 283 282 282 283 282 282 283 282 282 283 282 281 281 281 281 280 280 282 283 283 282 279 277 276 276 276 277 277 276 275 275 274 275 275 275 274 276 279 279 277 275 273 270 268 268 268 268 267 266 266 267 268 269
265 266 266 265 265 265 265 266 267 267 267 266 264 262 261 261 262 264 267 270 272 274 275 277 278 279 280 280 280 281 282 282 282 283 283 283 282 281 281 280 280 280 279 279 279 278 277 277 277 277 277 278 280 281 280 278 276 273 272 272 273 274 274 273 272 271 272 273 273 273 274 276 277 277 277 276 274 273 272 271 270 268 266 266 266 267 269 270
265 265 265 266 266 266 266 267 267 267 267 267 267 267 267 268 268 268 268 269 271 272 274 276 277 278 279 280 280 280 281 281 280 281 282 283 281 280 280 280 280 278 277 277 276 275 275 275 275 275 276 277 278 279 278 276 275 274 272 272 272 273 273 273 272 272 273 274 273 272 274 275 274 275 276 275 274 274 273 272 271 270 269 269 269 269 270 271
265 265 265 266 266 266 266 267 267 268 268 268 268 268 269 270 270 270 270 271 272 273 274 275 276 277 277 278 279 279 279 278 277 279 281 280 279 279 279 280 278 277 276 276 276 275 275 274 275 276 275 276 277 278 277 276 275 275 274 273 273 273 273 273 274 274 275 275 274 274 274 273 273 273 272 272 271 271 271 270 269 268 268 268 269 269 268 268
265 266 266 266 266 266 266 267 267 268 268 268 268 268 269 269 270 271 271 272 273 274 274 274 275 275 276 276 276 276 277 276 276 277 278 278 279 279 279 279 278 277 277 277 276 276 275 275 277 276 274 275 276 277 277 276 274 273 274 275 275 275 276 276 275 274 274 275 276 277 275 273 273 273 272 271 271 270 270 268 267 266 266 266 267 266 265 264
264 265 265 265 266 267 267 267 267 267 267 267 267 268 269 269 270 270 271 271 272 272 272 273 273 273 274 274 274 275 275 275 275 275 276 276 277 277 278 278 278 278 278 277 277 276 275 276 277 276 275 276 276 277 277 275 274 274 275 276 277 280 281 280 277 276 276 276 277 278 276 274 274 274 273 272 271 271 270 270 269 269 268 268 268 267 267 267
263 263 264 265 265 265 266 266 266 266 266 266 267 268 269 269 269 269 270 270 270 271 270 270 271 272 272 271 272 273 273 273 273 274 274 275 275 275 276 276 277 277 277 276 276 276 276 277 277 277 277 277 278 279 277 275 275 275 275 277 281 284 284 281 280 280 280 278 279 279 277 277 277 276 273 272 271 270 270 270 270 270 270 270 270 270 270 270
262 262 263 263 264 264 264 264 265 265 265 265 267 268 267 267 268 268 268 268 268 268 269 269 270 270 270 269 270 270 271 271 271 272 272 272 273 273 274 274 275 275 276 275 275 275 276 277 278 278 278 278 280 280 277 276 275 275 277 282 285 286 284 283 282 282 281 281 281 279 278 278 277 276 274 273 272 271 270 270 270 270 270 270 270 270 271 271
260 261 261 262 262 262 263 263 263 263 264 265 266 266 266 266 265 265 266 267 267 268 268 268 268 268 268 269 269 270 271 271 271 271 271 272 272 273 273 273 274 275 276 276 276 277 278 279 279 279 279 279 281 280 279 277 276 277 282 286 287 285 284 284 283 283 283 283 282 280 279 278 277 276 275 274 273 272 272 272 271 271 270 270 270 271 271 272
Height
5872 5872 5872 5873 5873 5873 5873 5873 5874 5874 5874 5874 5874 5874 5875 5875 5875 5875 5875 5875 5875 5875 5875 5876 5876 5876 5876 5875 5875 5875 5875 5874 5874 5874 5874 5874 5873 5873 5872 5872 5871 5871 5871 5870 5869 5869 5868 5868 5867 5867 5866 5866 5865 5865 5864 5864 5863 5863 5862 5862 5861 5860 5858 5857 5857 5856 5856 5855 5855 5855 5855 5853 5852 5851 5851 5850 5848 5847 5847 5845 5844 5846 5845 5844 5845 5844 5844 5843
5870 5870 5870 5870 5871 5871 5871 5871 5872 5872 5872 5872 5872 5873 5873 5873 5873 5873 5873 5873 5873 5874 5874 5874 5874 5874 5874 5874 5874 5873 5873 5872 5872 5872 5872 5872 5871 5871 5870 5870 5869 5869 5869 5868 5867 5867 5866 5865 5865 5864 5864 5864 5863 5862 5862 5862 5861 5861 5860 5860 5859 5857 5856 5855 5854 5853 5854 5853 5853 5852 5852 5851 5850 5849 5849 5849 5847 5845 5846 5844 5841 5844 5843 5842 5842 5841 5841 5841
5867 5867 5868 5868 5869 5869 5869 5869 5870 5870 5870 5870 5870 5871 5871 5871 5871 5871 5871 5871 5871 5871 5872 5872 5872 5872 5872 5872 5872 5871 5871 5870 5869 5870 5870 5869 5869 5868 5868 5867 5867 5867 5866 5866 5865 5864 5863 5863 5862 5862 5862 5861 5861 5860 5860 5859 5858 5858 5858 5857 5857 5855 5854 5853 5852 5851 5851 5851 5850 5850 5849 5849 5848 5847 5847 5846 5845 5845 5844 5842 5839 5841 5841 5839 5838 5838 5838 5838
5864 5865 5865 5866 5866 5866 5867 5867 5867 5868 5868 5868 5868 5868 5868 5868 5869 5868 5869 5869 5869 5869 5869 5869 5870 5870 5870 5870 5869 5869 5868 5867 5867 5867 5867 5867 5866 5866 5865 5865 5865 5864 5864 5863 5862 5861 5861 5860 5860 5859 5859 5859 5859 5858 5857 5857 5856 5856 5856 5855 5854 5852 5852 5851 5849 5849 5848 5848 5848 5847 5846 5846 5846 5845 5845 5843 5844 5844 5842 5838 5838 5839 5838 5836 5835 5835 5835 5835
5862 5862 5863 5863 5863 5864 5864 5865 5865 5865 5865 5866 5866 5866 5866 5866 5866 5866 5866 5866 5866 5866 5867 5867 5867 5867 5867 5867 5867 5867 5865 5864 5863 5864 5864 5864 5863 5863 5863 5862 5862 5861 5861 5860 5859 5859 5858 5858 5857 5857 5856 5856 5856 5856 5855 5854 5853 5853 5854 5853 5851 5849 5849 5848 5847 5847 5846 5845 5845 5844 5843 5843 5843 5843 5843 5841 5842 5843 5840 5835 5835 5836 5836 5834 5833 5832 5832 5832
5859 5860 5860 5860 5861 5861 5862 5862 5862 5862 5863 5863 5863 5863 5863 5863 5863 5863 5863 5863 5864 5863 5864 5864 5864 5865 5864 5865 5864 5864 5863 5860 5860 5861 5861 5860 5860 5860 5860 5859 5859 5858 5858 5857 5856 5856 5856 5855 5855 5854 5854 5854 5854 5854 5852 5852 5850 5850 5852 5850 5848 5847 5846 5846 5844 5844 5844 5842 5842 5841 5840 5840 5839 5840 5841 5839 5840 5841 5838 5833 5831 5833 5834 5833 5831 5830 5829 5829
5856 5857 5857 5858 5858 5858 5859 5859 5859 5860 5860 5860 5860 5860 5860 5860 5860 5860 5860 5860 5860 5860 5861 5861 5861 5861 5861 5862 5861 5861 5861 5856 5855 5858 5858 5857 5857 5857 5856 5856 5856 5856 5855 5854 5854 5853 5853 5852 5852 5851 5851 5851 5851 5851 5849 5849 5848 5847 5849 5847 5845 5845 5844 5843 5841 5841 5841 5839 5838 5837 5836 5837 5835 5835 5838 5838 5838 5838 5835 5831 5829 5830 5831 5830 5830 5828 5827 5827
5853 5854 5854 5854 5855 5855 5855 5856 5856 5856 5856 5857 5857 5857 5857 5857 5857 5857 5857 5857 5857 5857 5857 5857 5857 5858 5858 5859 5858 5859 5858 5851 5851 5854 5854 5854 5854 5853 5853 5853 5853 5853 5852 5851 5851 5850 5850 5850 5849 5848 5848 5848 5848 5848 5846 5845 5844 5844 5845 5844 5842 5842 5841 5840 5838 5838 5837 5836 5834 5832 5832 5833 5831 5830 5834 5838 5835 5833 5830 5828 5828 5829 5829 5828 5827 5826 5825 5825
5850 5850 5851 5851 5851 5852 5852 5852 5852 5852 5853 5853 5853 5853 5853 5853 5853 5853 5853 5853 5853 5853 5853 5853 5853 5853 5854 5855 5854 5856 5854 5848 5848 5850 5850 5851 5851 5851 5851 5850 5850 5850 5849 5848 5848 5847 5847 5846 5846 5845 5844 5845 5845 5844 5843 5841 5840 5841 5841 5840 5839 5838 5838 5837 5836 5835 5832 5832 5831 5827 5828 5830 5828 5826 5832 5836 5831 5828 5826 5826 5827 5826 5826 5825 5825 5824 5823 5823
5846 5847 5847 5848 5848 5848 5848 5848 5849 5849 5849 5849 5849 5849 5849 5849 5849 5849 5849 5849 5849 5849 5849 5849 5850 5850 5851 5851 5852 5853 5850 5845 5846 5847 5847 5848 5848 5848 5848 5848 5847 5847 5846 5845 5844 5844 5843 5843 5842 5841 5841 5841 5842 5841 5839 5838 5837 5837 5836 5836 5836 5835 5835 5834 5833 5832 5828 5828 5828 5824 5823 5827 5826 5824 5830 5831 5825 5824 5824 5824 5824 5822 5823 5823 5822 5822 5821 5821
5842 5843 5843 5844 5844 5844 5845 5845 5845 5845 5845 5845 5846 5846 5845 5845 5845 5845 5845 5845 5845 5845 5845 5845 5846 5846 5847 5848 5849 5850 5846 5844 5844 5844 5843 5844 5844 5845 5845 5844 5844 5843 5843 5842 5841 5840 5840 5839 5839 5837 5837 5838 5838 5837 5836 5835 5833 5833 5831 5831 5832 5831 5831 5832 5830 5829 5825 5825 5826 5820 5816 5821 5823 5821 5826 5827 5821 5821 5821 5821 5821 5820 5820 5820 5820 5819 5819 5818
5838 5839 5839 5840 5840 5840 5841 5841 5841 5841 5842 5842 5842 5842 5842 5841 5841 5841 5841 5842 5842 5842 5842 5842 5842 5843 5844 5846 5847 5846 5844 5842 5842 5841 5840 5840 5841 5841 5841 5841 5841 5840 5839 5838 5838 5837 5836 5835 5835 5834 5834 5834 5834 5833 5832 5832 5829 5829 5827 5825 5828 5827 5827 5829 5827 5826 5824 5821 5822 5817 5810 5814 5819 5820 5822 5822 5819 5818 5817 5818 5818 5818 5818 5817 5817 5816 5815 5815
5834 5834 5835 5835 5836 5836 5837 5837 5837 5838 5838 5838 5838 5838 5838 5838 5838 5838 5838 5838 5838 5838 5838 5838 5839 5839 5840 5843 5844 5842 5841 5840 5839 5838 5837 5837 5837 5838 5837 5837 5836 5835 5835 5834 5834 5833 5832 5831 5831 5830 5830 5830 5829 5829 5828 5827 5826 5826 5823 5819 5822 5822 5822 5827 5824 5823 5822 5818 5818 5813 5806 5806 5811 5817 5819 5817 5816 5815 5813 5814 5815 5815 5815 5814 5813 5812 5811 5811
5830 5830 5830 5831 5831 5832 5832 5833 5833 5833 5834 5834 5834 5834 5834 5834 5834 5834 5834 5834 5834 5834 5834 5834 5835 5835 5836 5839 5841 5839 5837 5837 5836 5835 5834 5833 5834 5834 5833 5832 5832 5831 5831 5830 5829 5829 5827 5827 5826 5825 5826 5826 5825 5825 5824 5822 5821 5823 5820 5816 5817 5815 5817 5822 5822 5822 5819 5814 5814 5809 5802 5802 5804 5812 5817 5813 5812 5812 5809 5810 5811 5811 5811 5810 5808 5808 5807 5806
5825 5826 5826 5826 5827 5827 5827 5828 5828 5829 5829 5829 5830 5830 5830 5830 5830 5830 5829 5829 5830 5830 5830 5830 5830 5830 5831 5835 5836 5835 5834 5832 5831 5831 5830 5830 5830 5829 5829 5828 5827 5827 5826 5826 5825 5824 5823 5822 5822 5821 5821 5822 5821 5821 5820 5817 5815 5819 5816 5812 5813 5810 5811 5814 5816 5820 5817 5810 5809 5805 5799 5799 5800 5805 5811 5810 5808 5808 5806 5806 5807 5807 5807 5806 5804 5803 5802 5802
5821 5821 5822 5822 5822 5823 5823 5823 5824 5824 5824 5824 5825 5825 5825 5825 5825 5825 5825 5825 5825 5825 5826 5825 5826 5825 5826 5830 5832 5830 5829 5828 5827 5827 5826 5826 5826 5825 5825 5824 5823 5823 5822 5822 5821 5820 5819 5818 5817 5816 5815 5818 5818 5817 5816 5811 5811 5814 5811 5807 5809 5807 5807 5807 5809 5814 5814 5806 5802 5800 5796 5796 5799 5800 5802 5805 5805 5803 5802 5801 5802 5803 5802 5802 5800 5798 5798 5797
5817 5817 5817 5817 5818 5818 5818 5819 5819 5819 5819 5820 5820 5820 5821 5820 5820 5820 5820 5820 5820 5821 5821 5821 5821 5820 5820 5824 5826 5825 5824 5823 5822 5823 5822 5822 5822 5821 5821 5820 5819 5818 5817 5817 5816 5816 5815 5813 5813 5811 5811 5814 5815 5813 5809 5806 5807 5808 5804 5802 5803 5803 5802 5802 5804 5808 5809 5803 5797 5795 5793 5794 5797 5795 5795 5801 5801 5797 5796 5796 5797 5797 5798 5798 5796 5794 5793 5792
5812 5813 5813 5813 5813 5814 5814 5814 5814 5814 5815 5815 5815 5815 5816 5816 5816 5816 5815 5816 5816 5816 5816 5816 5817 5816 5815 5818 5820 5820 5819 5818 5818 5818 5818 5818 5818 5817 5816 5816 5815 5814 5813 5812 5811 5811 5810 5808 5808 5805 5806 5811 5811 5808 5804 5802 5804 5802 5799 5798 5797 5797 5797 5796 5799 5802 5801 5797 5794 5792 5789 5789 5792 5791 5791 5795 5796 5792 5791 5792 5793 5793 5793 5792 5791 5789 5788 5788
5807 5808 5808 5808 5809 5809 5809 5809 5809 5809 5810 5810 5810 5810 5810 5810 5811 5810 5810 5811 5812 5812 5811 5811 5812 5811 5810 5812 5814 5814 5814 5814 5814 5814 5814 5814 5813 5813 5812 5811 5811 5810 5808 5808 5806 5807 5806 5803 5801 5801 5804 5807 5805 5802 5800 5799 5799 5796 5795 5794 5792 5792 5792 5792 5794 5795 5793 5788 5788 5789 5788 5786 5785 5786 5788 5788 5787 5787 5786 5786 5788 5789 5788 5787 5786 5785 5784 5783
5802 5803 5803 5803 5804 5804 5804 5804 5804 5804 5804 5805 5805 5805 5804 5805 5805 5804 5805 5807 5806 5807 5806 5805 5806 5806 5806 5806 5806 5807 5807 5808 5808 5810 5810 5810 5809 5808 5807 5806 5806 5805 5804 5803 5801 5802 5802 5797 5795 5798 5802 5801 5797 5796 5796 5796 5794 5791 5790 5789 5788 5786 5785 5788 5789 5789 5788 5782 5781 5783 5782 5781 5782 5782 5783 5781 5780 5781 5782 5782 5782 5783 5784 5783 5782 5781 5779 5778
5797 5798 5798 5798 5798 5799 5799 5799 5799 5799 5799 5799 5799 5799 5799 5799 5799 5798 5800 5801 5801 5801 5801 5800 5799 5800 5801 5800 5800 5801 5801 5802 5803 5805 5806 5805 5805 5803 5802 5802 5801 5800 5799 5798 5796 5796 5796 5792 5790 5794 5797 5796 5793 5791 5790 5790 5789 5788 5786 5784 5783 5782 5780 5783 5782 5781 5782 5778 5776 5776 5775 5774 5776 5777 5776 5775 5775 5775 5776 5777 5778 5778 5778 5779 5777 5775 5774 5773
5792 5792 5793 5793 5793 5793 5793 5793 5794 5793 5793 5793 5793 5793 5792 5793 5793 5792 5793 5795 5797 5797 5794 5794 5794 5794 5795 5794 5795 5796 5794 5796 5797 5799 5800 5800 5800 5798 5797 5797 5796 5795 5793 5793 5793 5791 5789 5787 5787 5789 5791 5789 5788 5787 5785 5783 5784 5783 5782 5780 5778 5777 5777 5777 5775 5774 5775 5774 5772 5771 5768 5768 5769 5769 5768 5767 5768 5771 5770 5769 5772 5773 5772 5774 5773 5771 5770 5769
5786 5787 5787 5787 5787 5788 5788 5788 5788 5788 5788 5788 5787 5787 5787 5787 5787 5787 5786 5786 5790 5792 5790 5789 5788 5788 5788 5787 5789 5790 5789 5791 5791 5793 5795 5794 5794 5794 5793 5792 5792 5790 5788 5789 5789 5787 5784 5781 5782 5785 5785 5783 5781 5781 5780 5779 5779 5778 5777 5775 5773 5774 5773 5770 5770 5768 5768 5768 5767 5765 5763 5763 5763 5761 5761 5760 5758 5762 5763 5760 5760 5762 5763 5765 5766 5766 5765 5765
5780 5781 5781 5782 5782 5782 5783 5782 5783 5783 5783 5783 5782 5781 5781 5781 5781 5781 5781 5779 5781 5785 5786 5785 5782 5782 5782 5781 5783 5783 5783 5785 5785 5786 5789 5788 5787 5788 5787 5786 5786 5784 5783 5784 5783 5782 5780 5777 5778 5780 5779 5778 5776 5775 5775 5774 5774 5773 5772 5771 5770 5770 5768 5766 5765 5763 5762 5762 5760 5760 5758 5758 5758 5754 5755 5756 5753 5754 5756 5754 5752 5751 5751 5755 5756 5758 5760 5760
5774 5775 5775 5776 5776 5777 5777 5777 5777 5777 5777 5777 5776 5776 5776 5776 5776 5775 5775 5774 5774 5777 5779 5779 5778 5776 5776 5776 5777 5777 5777 5779 5779 5780 5781 5781 5781 5781 5781 5780 5780 5778 5777 5778 5777 5776 5775 5775 5774 5773 5772 5772 5771 5770 5769 5769 5768 5768 5767 5767 5767 5766 5764 5762 5761 5758 5757 5756 5753 5754 5754 5753 5753 5751 5750 5751 5751 5751 5748 5747 5748 5745 5743 5745 5746 5747 5750 5751
5768 5769 5769 5770 5770 5771 5771 5771 5771 5771 5771 5770 5770 5771 5771 5771 5770 5770 5770 5769 5768 5769 5770 5772 5772 5771 5771 5771 5771 5772 5772 5772 5773 5773 5774 5774 5774 5774 5774 5773 5773 5771 5771 5771 5770 5770 5770 5771 5770 5768 5766 5766 5766 5766 5764 5763 5763 5762 5762 5763 5762 5760 5759 5758 5757 5755 5753 5751 5749 5748 5747 5745 5747 5749 5747 5745 5745 5746 5743 5740 5742 5741 5739 5738 5738 5738 5739 5741
5762 5763 5764 5764 5764 5765 5765 5765 5765 5765 5765 5764 5765 5765 5765 5765 5765 5766 5765 5763 5762 5762 5762 5763 5765 5765 5767 5767 5767 5767 5767 5766 5767 5767 5768 5768 5767 5768 5767 5767 5767 5765 5765 5764 5764 5765 5765 5764 5764 5763 5762 5761 5761 5760 5759 5758 5757 5756 5757 5756 5756 5755 5754 5753 5751 5749 5747 5746 5745 5744 5741 5740 5742 5744 5742 5740 5738 5738 5738 5736 5735 5737 5737 5735 5733 5733 5733 5734
5757 5757 5758 5759 5759 5759 5759 5759 5759 5758 5759 5759 5760 5760 5760 5760 5760 5761 5760 5757 5757 5756 5755 5757 5758 5759 5760 5761 5762 5762 5762 5762 5762 5761 5762 5761 5760 5761 5760 5760 5760 5760 5760 5759 5758 5759 5759 5759 5758 5757 5757 5756 5756 5754 5753 5753 5752 5751 5751 5750 5750 5749 5748 5747 5745 5744 5742 5741 5740 5739 5737 5736 5738 5739 5735 5733 5731 5730 5731 5731 5729 5731 5734 5733 5730 5729 5730 5730
5751 5752 5752 5753 5754 5753 5753 5754 5753 5753 5753 5754 5754 5754 5755 5755 5755 5756 5754 5752 5751 5750 5751 5752 5753 5753 5753 5754 5755 5756 5756 5756 5756 5755 5755 5755 5754 5754 5753 5753 5753 5753 5754 5753 5753 5753 5753 5753 5753 5752 5752 5751 5750 5749 5748 5747 5746 5746 5746 5744 5743 5742 5741 5739 5738 5738 5737 5735 5736 5735 5734 5732 5733 5734 5730 5726 5724 5724 5725 5725 5725 5726 5727 5727 5725 5725 5726 5726
5746 5746 5747 5747 5748 5748 5748 5748 5748 5748 5748 5749 5749 5749 5749 5749 5750 5750 5747 5746 5746 5745 5746 5747 5748 5748 5748 5748 5749 5749 5750 5750 5750 5750 5750 5749 5749 5749 5748 5747 5747 5747 5746 5747 5747 5747 5747 5748 5747 5747 5747 5745 5744 5743 5742 5742 5740 5740 5740 5738 5736 5735 5734 5732 5732 5732 5730 5730 5732 5731 5730 5728 5727 5728 5726 5722 5719 5720 5720 5720 5722 5723 5721 5719 5719 5720 5721 5721
5741 5741 5741 5742 5742 5742 5742 5742 5743 5743 5743 5744 5743 5743 5744 5744 5744 5743 5740 5741 5742 5741 5741 5742 5742 5743 5744 5743 5742 5742 5742 5742 5743 5744 5744 5744 5745 5744 5744 5742 5741 5741 5740 5740 5741 5741 5741 5742 5742 5742 5741 5740 5738 5737 5737 5736 5735 5734 5734 5732 5731 5730 5728 5725 5725 5725 5724 5727 5729 5727 5724 5722 5722 5722 5722 5718 5716 5717 5718 5717 5718 5720 5718 5717 5715 5714 5716 5716
5735 5735 5736 5736 5736 5736 5736 5737 5738 5738 5738 5738 5738 5737 5738 5737 5737 5736 5735 5736 5737 5736 5737 5737 5737 5738 5737 5737 5736 5735 5735 5734 5735 5736 5736 5737 5739 5739 5739 5737 5736 5735 5735 5735 5734 5734 5736 5736 5736 5735 5735 5734 5731 5731 5731 5731 5729 5728 5728 5727 5725 5724 5722 5719 5718 5718 5719 5722 5722 5721 5719 5716 5716 5717 5718 5716 5714 5715 5716 5714 5714 5714 5713 5714 5713 5710 5710 5710
5730 5730 5730 5730 5730 5730 5730 5731 5731 5732 5732 5733 5732 5732 5732 5730 5729 5729 5730 5732 5732 5732 5732 5732 5731 5731 5731 5730 5729 5728 5728 5728 5728 5729 5728 5730 5731 5733 5733 5732 5730 5729 5728 5729 5727 5727 5728 5730 5730 5728 5728 5728 5726 5725 5724 5723 5723 5722 5722 5722 5719 5718 5715 5712 5713 5713 5713 5713 5712 5714 5713 5711 5712 5712 5713 5714 5712 5712 5713 5710 5710 5710 5708 5708 5708 5707 5705 5703
5724 5724 5724 5725 5725 5724 5724 5724 5725 5726 5725 5725 5725 5725 5724 5723 5722 5723 5725 5727 5727 5725 5726 5725 5724 5725 5724 5723 5722 5722 5722 5721 5723 5724 5722 5723 5724 5725 5726 5725 5724 5722 5721 5721 5720 5719 5720 5722 5723 5720 5721 5723 5721 5719 5718 5717 5717 5716 5717 5716 5713 5713 5710 5706 5707 5706 5704 5702 5703 5707 5706 5705 5709 5708 5707 5708 5706 5706 5707 5705 5705 5705 5705 5703 5701 5700 5698 5697
5717 5718 5718 5719 5719 5718 5718 5718 5718 5719 5718 5718 5718 5717 5717 5717 5717 5719 5719 5719 5719 5718 5719 5719 5718 5718 5718 5717 5717 5717 5716 5714 5717 5718 5717 5717 5717 5719 5720 5719 5718 5716 5714 5712 5711 5712 5712 5713 5715 5712 5713 5716 5716 5715 5713 5711 5710 5709 5711 5709 5708 5709 5706 5700 5698 5697 5697 5694 5695 5701 5699 5700 5706 5704 5703 5702 5698 5699 5699 5698 5698 5698 5698 5697 5693 5691 5689 5688
5710 5711 5712 5712 5712 5712 5712 5712 5712 5712 5712 5712 5710 5709 5712 5713 5713 5713 5712 5713 5712 5711 5711 5711 5711 5711 5711 5711 5711 5710 5710 5709 5710 5711 5711 5712 5712 5713 5715 5713 5712 5710 5706 5704 5703 5704 5704 5705 5708 5706 5705 5707 5709 5709 5708 5707 5705 5703 5704 5704 5703 5702 5699 5693 5689 5690 5690 5685 5688 5696 5694 5695 5698 5696 5699 5698 5692 5693 5693 5691 5691 5689 5689 5688 5685 5683 5681 5679
5703 5703 5705 5706 5705 5705 5705 5706 5706 5706 5705 5704 5703 5705 5707 5708 5708 5707 5706 5707 5706 5704 5703 5703 5705 5706 5706 5706 5705 5703 5703 5704 5704 5705 5706 5705 5705 5708 5710 5708 5706 5704 5700 5698 5696 5696 5697 5698 5703 5703 5698 5698 5701 5701 5699 5700 5699 5696 5697 5699 5697 5692 5690 5688 5682 5681 5682 5676 5678 5687 5688 5689 5690 5688 5692 5691 5684 5685 5686 5683 5683 5681 5681 5679 5676 5675 5673 5671
5695 5696 5698 5699 5698 5698 5699 5699 5699 5700 5699 5697 5697 5700 5701 5701 5703 5701 5700 5700 5698 5697 5697 5697 5698 5699 5700 5701 5700 5697 5696 5697 5697 5699 5700 5699 5699 5702 5703 5700 5700 5699 5696 5693 5690 5689 5688 5689 5697 5700 5693 5690 5693 5694 5691 5690 5691 5690 5689 5689 5688 5684 5683 5683 5676 5673 5673 5668 5668 5674 5677 5680 5683 5684 5686 5680 5673 5674 5674 5673 5673 5672 5672 5670 5667 5665 5664 5663
5688 5689 5691 5693 5692 5691 5691 5691 5693 5694 5693 5692 5692 5694 5695 5696 5695 5694 5694 5694 5692 5691 5691 5691 5691 5692 5693 5695 5694 5692 5691 5691 5690 5690 5691 5692 5693 5695 5695 5694 5693 5692 5691 5688 5684 5682 5681 5679 5686 5694 5690 5683 5685 5687 5685 5683 5682 5681 5680 5678 5678 5677 5675 5675 5671 5668 5666 5661 5660 5663 5663 5669 5675 5676 5676 5671 5664 5663 5663 5663 5663 5661 5660 5658 5656 5655 5655 5654
5680 5681 5684 5686 5685 5684 5684 5683 5685 5687 5686 5687 5688 5688 5689 5689 5688 5688 5688 5688 5686 5684 5684 5685 5685 5685 5686 5688 5688 5686 5685 5685 5685 5683 5682 5684 5686 5686 5687 5687 5686 5684 5683 5682 5678 5676 5674 5670 5672 5682 5683 5679 5678 5679 5678 5676 5673 5672 5671 5670 5669 5668 5667 5664 5662 5663 5662 5655 5654 5654 5651 5657 5667 5668 5666 5664 5658 5654 5653 5654 5654 5652 5650 5648 5646 5645 5645 5644
5673 5673 5677 5680 5677 5676 5677 5675 5678 5681 5680 5682 5684 5682 5682 5682 5682 5682 5682 5681 5679 5678 5678 5678 5678 5679 5680 5680 5680 5679 5677 5678 5679 5677 5675 5677 5678 5677 5678 5679 5678 5676 5676 5675 5672 5669 5667 5664 5662 5667 5672 5672 5673 5672 5668 5666 5666 5664 5663 5664 5663 5661 5660 5656 5652 5655 5656 5650 5647 5647 5641 5646 5658 5660 5658 5657 5653 5648 5647 5645 5644 5644 5642 5640 5638 5636 5635 5634
5666 5666 5671 5673 5670 5669 5668 5668 5672 5674 5673 5677 5680 5678 5676 5676 5676 5675 5674 5675 5673 5671 5672 5672 5671 5673 5672 5671 5671 5671 5670 5670 5671 5671 5669 5671 5671 5668 5669 5670 5669 5668 5668 5666 5665 5663 5660 5657 5654 5655 5659 5662 5666 5666 5660 5657 5659 5657 5656 5658 5658 5655 5655 5651 5645 5646 5647 5642 5641 5640 5634 5635 5647 5652 5650 5648 5646 5644 5640 5637 5635 5634 5633 5632 5630 5628 5627 5625
5657 5658 5661 5664 5662 5661 5660 5661 5665 5666 5667 5673 5675 5672 5670 5669 5669 5668 5667 5667 5665 5664 5664 5664 5664 5665 5663 5663 5663 5663 5662 5660 5662 5664 5663 5663 5664 5662 5661 5662 5661 5661 5659 5657 5657 5657 5654 5651 5648 5646 5647 5650 5656 5658 5655 5651 5651 5649 5648 5650 5650 5649 5650 5646 5640 5639 5636 5633 5635 5634 5625 5626 5636 5642 5640 5638 5637 5635 5633 5630 5628 5626 5624 5623 5621 5619 5618 5616
5649 5649 5652 5654 5654 5653 5652 5655 5658 5658 5661 5665 5665 5664 5663 5661 5661 5661 5659 5658 5657 5656 5656 5656 5656 5656 5655 5655 5654 5655 5654 5651 5651 5655 5655 5654 5655 5654 5654 5653 5653 5653 5651 5649 5649 5649 5647 5645 5643 5639 5637 5640 5646 5650 5648 5644 5643 5642 5641 5642 5642 5642 5643 5639 5636 5633 5626 5624 5628 5624 5617 5619 5625 5629 5629 5628 5627 5626 5625 5623 5621 5618 5616 5614 5611 5610 5608 5607
5640 5640 5642 5644 5644 5643 5645 5648 5650 5649 5652 5654 5653 5654 5655 5653 5654 5654 5652 5650 5649 5647 5647 5647 5647 5646 5646 5646 5646 5647 5646 5643 5642 5644 5647 5647 5645 5646 5647 5645 5645 5645 5643 5642 5641 5640 5638 5637 5637 5634 5630 5630 5634 5640 5641 5637 5634 5633 5634 5635 5634 5635 5635 5632 5629 5624 5617 5616 5619 5615 5611 5613 5616 5618 5619 5619 5617 5615 5614 5612 5611 5609 5607 5605 5602 5599 5598 5596
5632 5631 5633 5635 5634 5634 5637 5640 5641 5641 5642 5643 5642 5644 5646 5644 5644 5645 5643 5641 5640 5640 5640 5639 5639 5639 5638 5638 5637 5638 5639 5637 5634 5635 5639 5640 5637 5637 5638 5638 5638 5637 5636 5635 5633 5632 5629 5628 5630 5628 5624 5623 5624 5627 5631 5628 5623 5622 5624 5626 5628 5628 5627 5624 5618 5613 5610 5607 5605 5607 5608 5604 5606 5611 5611 5609 5607 5603 5600 5600 5600 5599 5597 5595 5592 5589 5587 5586
5623 5623 5626 5627 5625 5626 5629 5631 5632 5632 5633 5632 5632 5635 5637 5635 5633 5633 5633 5632 5632 5632 5631 5630 5631 5630 5630 5631 5629 5629 5632 5631 5627 5628 5631 5632 5630 5628 5629 5631 5630 5629 5629 5627 5625 5624 5621 5619 5623 5623 5617 5618 5618 5617 5620 5618 5613 5612 5613 5616 5620 5620 5619 5616 5609 5605 5603 5595 5590 5599 5604 5596 5595 5602 5602 5600 5598 5592 5588 5588 5588 5588 5586 5584 5582 5580 5577 5576
5615 5615 5617 5618 5616 5617 5620 5623 5625 5623 5622 5622 5622 5625 5627 5626 5624 5623 5624 5624 5624 5624 5623 5621 5622 5622 5622 5623 5622 5621 5624 5623 5620 5621 5623 5623 5622 5620 5620 5622 5622 5621 5622 5619 5617 5617 5612 5610 5615 5614 5608 5610 5612 5610 5610 5608 5603 5603 5603 5605 5609 5610 5610 5608 5601 5596 5594 5586 5580 5589 5593 5586 5586 5591 5590 5587 5585 5581 5578 5577 5576 5576 5575 5573 5572 5570 5568 5566
5608 5608 5608 5608 5608 5610 5612 5614 5616 5614 5613 5613 5613 5617 5619 5618 5617 5614 5614 5616 5617 5617 5616 5613 5614 5615 5615 5615 5614 5613 5615 5615 5613 5614 5615 5615 5615 5613 5612 5613 5613 5614 5614 5612 5609 5608 5603 5602 5605 5603 5598 5602 5605 5604 5602 5597 5592 5592 5594 5595 5597 5600 5600 5597 5590 5588 5586 5579 5576 5579 5576 5573 5578 5579 5575 5573 5572 5570 5567 5565 5564 5563 5562 5561 5560 5559 5557 5556
5600 5600 5599 5599 5600 5602 5603 5605 5606 5605 5605 5605 5605 5609 5611 5609 5609 5606 5605 5608 5609 5609 5609 5607 5606 5608 5608 5607 5606 5606 5607 5607 5606 5606 5607 5607 5607 5606 5605 5605 5605 5605 5606 5604 5601 5599 5596 5595 5595 5592 5587 5590 5596 5597 5592 5586 5582 5581 5583 5587 5590 5590 5589 5585 5581 5581 5577 5570 5570 5569 5562 5560 5565 5565 5560 5559 5559 5558 5556 5554 5553 5552 5550 5549 5548 5546 5546 5544
5591 5591 5591 5590 5591 5593 5594 5595 5597 5596 5595 5597 5599 5601 5602 5601 5602 5599 5596 5599 5602 5601 5601 5601 5600 5600 5600 5599 5599 5598 5599 5599 5598 5598 5599 5599 5599 5599 5598 5598 5598 5597 5597 5597 5593 5590 5589 5586 5586 5584 5576 5577 5587 5587 5579 5576 5572 5569 5574 5581 5584 5581 5576 5573 5572 5570 5566 5561 5559 5556 5550 5548 5550 5548 5545 5544 5544 5544 5544 5542 5542 5541 5538 5536 5535 5534 5533 5531
5582 5581 5582 5581 5581 5584 5585 5586 5587 5586 5587 5590 5592 5592 5593 5593 5594 5592 5588 5590 5594 5594 5594 5593 5593 5592 5591 5590 5591 5591 5591 5591 5590 5590 5591 5591 5590 5591 5590 5590 5591 5589 5589 5588 5584 5582 5582 5577 5576 5575 5566 5565 5576 5575 5566 5563 5559 5559 5570 5576 5575 5571 5565 5560 5559 5558 5556 5553 5546 5540 5537 5536 5534 5532 5531 5528 5528 5530 5531 5530 5531 5529 5526 5523 5521 5521 5521 5519